Printer-friendly version
Follow the MPC on Twitter Follow the MPC on Facebook The MPC blog
Minor Planet Center

MPEC 2009-B05 : 2009 AE16

The following Minor Planet Electronic Circular may be linked-to from your own Web pages, but must not otherwise be redistributed electronically.

A form allowing access to any MPEC is at the bottom of this page.


Read MPEC 2009-B04 Read MPEC 2009-B06


M.P.E.C. 2009-B05                                Issued 2009 Jan. 17, 02:37 UT

     The Minor Planet Electronic Circulars contain information on unusual
         minor planets and routine data on comets.  They are published
   on behalf of Commission 20 of the International Astronomical Union by the
          Minor Planet Center, Smithsonian Astrophysical Observatory,
                          Cambridge, MA 02138, U.S.A.

             Prepared using the Tamkin Foundation Computer Network

                              MPC@CFA.HARVARD.EDU
          URL http://www.cfa.harvard.edu/iau/mpc.html  ISSN 1523-6714

                                   2009 AE16

Observations:
     K09A16E* C2009 01 15.39340 12 47 22.16 +35 23 27.6          17.2   EB005704
     K09A16E  C2009 01 15.40593 12 47 27.27 +35 22 45.3          17.6   EB005704
     K09A16E  C2009 01 15.41846 12 47 32.34 +35 22 02.6          17.5   EB005704
     K09A16E  C2009 01 15.43101 12 47 37.51 +35 21 19.4          17.6   EB005704
     K09A16E  C2009 01 15.44357 12 47 42.60 +35 20 36.3          17.5   EB005704
     K09A16E  C2009 01 16.33581 12 54 25.74 +34 23 32.8          17.2 R EB005854
     K09A16E  C2009 01 16.34156 12 54 28.43 +34 23 09.1          17.2 R EB005854
     K09A16E  C2009 01 16.34252 12 54 28.92 +34 23 05.5          17.1 R EB005854
     K09A16E  C2009 01 16.34835 12 54 30.81 +34 22 46.2          16.4 R EB005850
     K09A16E  C2009 01 16.35282 12 54 32.89 +34 22 28.2          17.1 R EB005850
     K09A16E  C2009 01 16.35722 12 54 34.92 +34 22 09.5          16.6 R EB005850
     K09A16E  C2009 01 16.36141 12 54 36.89 +34 21 52.6          16.6 R EB005850
     K09A16E  C2009 01 16.36504112 54 38.53 +34 21 34.4          18.0 V EB005H55
     K09A16E  C2009 01 16.36581 12 54 38.89 +34 21 34.3          16.8 R EB005850
     K09A16E  C2009 01 16.36915312 54 40.47 +34 21 17.5          18.0 V EB005H55
     K09A16E  C2009 01 16.37021 12 54 40.92 +34 21 16.1          16.4 R EB005850
     K09A16E  C2009 01 16.37320512 54 42.36 +34 21 00.5          18.0 V EB005H55
     K09A16E  C2009 01 16.37462 12 54 43.00 +34 20 58.0          16.5 R EB005850
     K09A16E  C2009 01 16.37903 12 54 45.03 +34 20 39.9          17.1 R EB005850
     K09A16E  C2009 01 16.38343 12 54 47.06 +34 20 22.1          17.3 R EB005850
     K09A16E  C2009 01 16.38783 12 54 49.20 +34 20 02.3          17.2 R EB005850
     K09A16E  C2009 01 16.42725 12 55 08.50 +34 17 16.3          17.0 R EB005H10
     K09A16E  C2009 01 16.42823 12 55 08.99 +34 17 12.3          17.1 R EB005H10
     K09A16E  C2009 01 16.42907 12 55 09.40 +34 17 08.8          16.7 R EB005H10
     K09A16E  C2009 01 16.42989 12 55 09.79 +34 17 05.0          16.9 R EB005H10
     K09A16E  C2009 01 16.43543 12 55 12.41 +34 16 42.6          16.7 R EB005H10
     K09A16E  C2009 01 16.45752 12 55 22.82 +34 15 08.0          17.4   EB005704
     K09A16E  C2009 01 16.47060 12 55 28.98 +34 14 12.4          17.3   EB005704
     K09A16E  C2009 01 16.48335 12 55 34.98 +34 13 18.0          17.5   EB005704
     K09A16E  C2009 01 16.49611 12 55 41.00 +34 12 22.9          17.6   EB005704
     K09A16E  C2009 01 16.50886 12 55 47.03 +34 11 27.8          17.5   EB005704
     K09A16E  C2009 01 16.66353 12 57 06.40 +33 59 53.0          16.8 V EB005900
     K09A16E  C2009 01 16.67058 12 57 09.83 +33 59 22.3          16.7 V EB005900
     K09A16E  C2009 01 16.99908 12 59 59.10 +33 33 44.2                 EB005595
     K09A16E  C2009 01 17.00565 13 00 02.48 +33 33 13.8          17.3 V EB005595
     K09A16E  C2009 01 17.00872 13 00 04.11 +33 32 59.0          17.7 V EB005595

Observer details:
595 Farra d'Isonzo.  Observers L. Bittesini, F. Fabris, E. Pettarin, F. Piani.
    Measurer E. Pettarin.  0.30-m f/4.5 reflector + CCD.
704 Lincoln Laboratory ETS, New Mexico.  Observers M. Bezpalko, D. Torres,
    R. Kracke, G. Spitz, J. Kistler.  Measurers J. Stuart, S. Scruggs.  1.0-m
    f/2.15 reflector + CCD.
850 Cordell-Lorenz Observatory, Sewanee.  Observer D. T. Durig.  0.30-m f/2.5
    Schmidt-Cassegrain + 765x510 CCD.
854 Sabino Canyon Observatory, Tucson.  Observer J. E. McGaha.  0.36-m f/10.0
    Schmidt-Cassegrain + CCD.
900 Moriyama.  Observer Y. Ikari.  0.26-m f/7.0 reflector + CCD.
H10 Tzec Maun Observatory, Mayhill.  Observer F. Tozzi.  0.36-m f/3.8
    Maksutov-Newtonian + CCD.
H55 Astronomical Research Observatory, Charleston.  Observer R. Holmes.
    Measurer H. Devore.  0.81-m f/4.0 astrograph + CCD.

Orbital elements:
2009 AE16                                           PHA, Earth MOID = 0.0284 AU
Epoch 2008 Nov. 30.0 TT = JDT 2454800.5                 MPC
M 319.69379              (2000.0)            P               Q
n   0.40209689     Peri.  280.17501     -0.40686097     +0.72590458
a   1.8179513      Node   309.98701     -0.24124504     -0.67089990
e   0.7414343      Incl.   46.36721     -0.88105901     -0.15151195
P   2.45           H   18.5           G   0.15           U   9
Residuals in seconds of arc
090115 704  0.1+  0.1+    090116 H55  0.4-  0.0     090116 H10  0.1+  0.3-
090115 704  0.1+  0.3+    090116 850  0.3-  0.4-    090116 H10  0.3+  0.6+
090115 704  0.3-  0.3+    090116 H55  0.1-  0.1+    090116 704  0.2+  0.3+
090115 704  0.4+  0.0     090116 850  0.6-  0.4-    090116 704  0.3+  0.4+
090115 704  0.1+  0.1+    090116 H55  0.2-  0.1-    090116 704  0.2+  0.6+
090116 854  0.1+  0.2-    090116 850  0.3-  0.1-    090116 704  0.2+  0.4+
090116 854  0.2-  0.5-    090116 850  0.6-  0.1+    090116 704  0.3+  0.4+
090116 854  0.3+  0.2-    090116 850  0.8-  0.7+    090116 900  0.0   0.1+
090116 850  0.4+  0.6-    090116 850  0.3+  0.8-    090116 900  0.7-  0.2+
090116 850  0.3+  0.2-    090116 H10  0.5-  0.1-    090116 595  0.6+  0.2-
090116 850  0.1+  0.7-    090116 H10  0.2-  0.0     090117 595  0.1-  0.5+
090116 850  0.3+  0.3-    090116 H10  0.0   0.0     090117 595  0.3+  0.2+

Ephemeris:
2009 AE16                a,e,i = 1.82, 0.74, 46                  q = 0.4701
Date    TT    R. A. (2000) Decl.     Delta      r     Elong.  Phase     V
2009 01 09    12 15.52   +39 08.9    0.345    1.177   116.1    48.6    18.4
2009 01 11    12 23.39   +38 20.2    0.306    1.151   116.0    50.2    18.1
2009 01 13    12 32.86   +37 15.4    0.267    1.125   115.5    52.1    17.8
2009 01 15    12 44.65   +35 45.4    0.229    1.098   114.5    54.6    17.5
2009 01 17    12 59.95   +33 34.1    0.191    1.072   112.6    58.0    17.1
2009 01 19    13 20.75   +30 09.1    0.155    1.045   109.1    62.8    16.8
2009 01 21    13 50.60   +24 22.3    0.120    1.018   102.9    70.5    16.4
2009 01 23    14 35.59   +13 48.0    0.0911   0.990    91.2    83.5    16.2
2009 01 25    15 44.30   -04 57.3    0.0727   0.963    70.7   105.2    16.6
2009 01 27    17 18.38   -27 34.9    0.0741   0.935    46.5   130.2    18.4
2009 01 29    18 54.72   -41 13.2    0.0946   0.907    33.3   143.4    20.5

A. U. Tomatic                (C) Copyright 2009 MPC           M.P.E.C. 2009-B05

Read MPEC 2009-B04 Read MPEC 2009-B06


MPEC number:

Enter an MPEC number in one of the following forms:

  • 1997-B01 (the full form)
  • J97B01 (the packed version of the full form)
  • B01 (the abbreviated form)

Valid HTML 4.01!